Location: Newark
(50.0336°N, 22.0047°E)
Time: 00:18:45
(UTC+00:00)

N. Korean satellite - Pass Details

Date: 30 January 2020
Orbit: 456 x 505 km, 97.2° (Epoch: 24 February)

Event Time Altitude Azimuth Distance (km) Brightness Sun altitude
Rises 05:06:34 0° 5° (N) 2,553 10.1 -10.2°
Reaches altitude 10° 05:08:44 10° 356° (N) 1,677 9.1 -9.9°
Maximum altitude 05:12:01 34° 290° (WNW) 820 7.2 -9.4°
Drops below altitude 10° 05:15:21 10° 225° (SW) 1,689 9.0 -8.9°
Sets 05:17:32 0° 216° (SW) 2,574 10.1 -8.5°
